EDDS

Stuttgart Airport

Airport
ICAO code
EDDS
IATA Code
STR
Summary
ICAO Region
EUR
ICAO Territory
Location

Echterdingen, Stuttgart,

Serving
Stuttgart
Elevation
1276 ft
Coordinates
48° 41' 17" N , 9° 12' 37" E
KCC
Metar
EDDS 151720Z AUTO 15003KT 100V190 9999 -SHRA FEW///TCU 28/17 Q1010 TEMPO SHRA

Description

International airport serving Stuttgart, Germany.

Climatology

Temperate Marine climate/Oceanic climate (Köppen climate classification Cfb) - Moderately cool summer and comparatively warm winter.

Runways

Designator Length Width Surface Rops
7/25 3345 45 CON Yes/Yes

SKYbrary Partners:

Safety knowledge contributed by: